Flag for U.S.A. Weather past 2 weeks in Fort Wayne, Indiana, U.S.A.

Now
88 °F

Passing clouds.


Feels Like: 89 °F
Forecast: 63 / 86 °F
Wind: 18 mph from Southwest

Location: Fort Wayne International Airport

Current Time: Aug 2, 2015 at 2:46:25 PM

Latest Report: Aug 2, 2015 at 1:54 PM


Visibility: 10 mi

Pressure: 29.87 "Hg

Humidity: 45%

Dew point: 64 °F

Location of Fort WayneLocation

Historic Weather in Fort Wayne — Graph

°F

Fort Wayne temperature yesterday

Maximum temperature yesterday: 83 °F (at 2:54 PM)
Minimum temperature yesterday: 60 °F (at 3:54 AM)
Average temperature yesterday: 72 °F

Past Weeks' High & Low Weather Summary

 TemperatureHumidityPressure
High88 °F (Jul 18, 1:54 PM)100% (Jul 26, 6:54 AM)30.06 "Hg (Jul 26, 6:54 AM)
Low57 °F (Jul 22, 4:54 AM)30% (Jul 31, 5:54 PM)29.72 "Hg (Jul 21, 4:54 AM)
Average75 °F71%29.95 "Hg
* Reported Jul 18 1:54 PM — Aug 2 1:54 PM, Fort Wayne, Weather by CustomWeather, © 2015

Note: Actual official high and low records may vary slightly from our data, if they occured in-between our weather recording intervals... More about our weather records

Advertising

Fort Wayne weather history for previous 24 hours

 ConditionsComfort  
Time TempWeatherWind HumidityBarometerVisibility
1:54 PM
Sun, Aug 2
88 °FPassing clouds.18 mph45%29.87 "Hg10 mi
12:54 PM84 °FScattered clouds.17 mph57%29.90 "Hg10 mi
11:54 AM82 °FPassing clouds.13 mph58%29.91 "Hg10 mi
10:54 AM80 °FPassing clouds.12 mph62%29.92 "Hg10 mi
9:54 AM76 °FPassing clouds.9 mph67%29.93 "Hg10 mi
8:54 AM71 °FPassing clouds.8 mph76%29.93 "Hg10 mi
7:54 AM67 °FScattered clouds.7 mph85%29.93 "Hg10 mi
6:54 AM64 °FPassing clouds.6 mph87%29.93 "Hg10 mi
5:54 AM64 °FPassing clouds.7 mph90%29.92 "Hg10 mi
4:54 AM65 °FClear.8 mph87%29.91 "Hg10 mi
3:54 AM66 °FPassing clouds.8 mph84%29.91 "Hg10 mi
2:54 AM65 °FPassing clouds.7 mph87%29.92 "Hg10 mi
1:54 AM67 °FPassing clouds.7 mph81%29.92 "Hg10 mi
12:54 AM67 °FPassing clouds.9 mph81%29.92 "Hg10 mi
11:54 PM
Sat, Aug 1
69 °FPassing clouds.8 mph73%29.93 "Hg10 mi
10:54 PM71 °FPassing clouds.12 mph68%29.93 "Hg10 mi
9:54 PM71 °FBroken clouds.8 mph68%29.93 "Hg10 mi
8:54 PM74 °FBroken clouds.7 mph64%29.93 "Hg10 mi
7:54 PM80 °FScattered clouds.5 mph44%29.93 "Hg10 mi
6:54 PM81 °FBroken clouds.9 mph41%29.93 "Hg10 mi
5:54 PM80 °FPartly sunny.12 mph39%29.94 "Hg10 mi
4:54 PM80 °FPartly sunny.13 mph41%29.95 "Hg10 mi
3:54 PM83 °FScattered clouds.16 mph36%29.96 "Hg10 mi
2:54 PM83 °FScattered clouds.9 mph37%29.97 "Hg10 mi
Weather by CustomWeather, © 2015

See weather overviewHow to use our weather pages